Time,TemperatureF,DewpointF,PressureIn,WindDirection,WindDirectionDegrees,WindSpeedMPH,WindSpeedGustMPH,Humidity,HourlyPrecipIn,Conditions,Clouds,dailyrainin,SoftwareType,DateUTC
2013-02-26 00:02:00,16.0,-99.9,29.97,East,80,3.0,-999.0,-999,-99.99,,,-99.99,,2013-02-26 06:02:00,
2013-02-26 00:11:00,16.0,-99.9,29.97,ESE,123,3.0,-999.0,-999,-99.99,,,-99.99,,2013-02-26 06:11:00,
2013-02-26 00:22:00,16.0,-99.9,29.96,ENE,60,2.0,-999.0,-999,-99.99,,,-99.99,,2013-02-26 06:22:00,
2013-02-26 00:32:00,16.0,-99.9,29.96,ESE,122,3.0,-999.0,-999,-99.99,,,-99.99,,2013-02-26 06:32:00,
2013-02-26 00:42:00,15.0,-99.9,29.96,ENE,74,2.0,-999.0,-999,-99.99,,,-99.99,,2013-02-26 06:42:00,
2013-02-26 00:52:00,15.0,-99.9,29.95,NE,56,3.0,-999.0,-999,-99.99,,,-99.99,,2013-02-26 06:52:00,
2013-02-26 01:01:00,15.0,-99.9,29.95,ENE,77,2.0,-999.0,-999,-99.99,,,-99.99,,2013-02-26 07:01:00,
2013-02-26 01:11:00,15.0,-99.9,29.95,NE,51,7.0,-999.0,-999,-99.99,,,-99.99,,2013-02-26 07:11:00,
2013-02-26 01:22:00,15.0,-99.9,29.95,East,86,4.0,-999.0,-999,-99.99,,,-99.99,,2013-02-26 07:22:00,
2013-02-26 01:32:00,15.0,-99.9,29.96,East,90,7.0,-999.0,-999,-99.99,,,-99.99,,2013-02-26 07:32:00,
2013-02-26 01:42:00,15.0,-99.9,29.96,ESE,113,10.0,-999.0,-999,-99.99,,,-99.99,,2013-02-26 07:42:00,
2013-02-26 01:52:00,15.0,-99.9,29.97,ESE,111,14.0,-999.0,-999,-99.99,,,-99.99,,2013-02-26 07:52:00,
2013-02-26 02:02:00,15.0,-99.9,29.97,ESE,111,14.0,-999.0,-999,-99.99,,,-99.99,,2013-02-26 08:02:00,
2013-02-26 02:11:00,15.0,-99.9,29.97,ESE,115,13.0,-999.0,-999,-99.99,,,-99.99,,2013-02-26 08:11:00,
2013-02-26 02:22:00,15.0,-99.9,29.97,ESE,105,10.0,-999.0,-999,-99.99,,,-99.99,,2013-02-26 08:22:00,
2013-02-26 02:32:00,15.0,-99.9,29.97,East,96,10.0,-999.0,-999,-99.99,,,-99.99,,2013-02-26 08:32:00,
2013-02-26 02:42:00,16.0,-99.9,29.97,ESE,118,13.0,-999.0,-999,-99.99,,,-99.99,,2013-02-26 08:42:00,
2013-02-26 02:52:00,16.0,-99.9,29.97,ESE,103,9.0,-999.0,-999,-99.99,,,-99.99,,2013-02-26 08:52:00,
2013-02-26 03:02:00,15.0,-99.9,29.98,SE,136,10.0,-999.0,-999,-99.99,,,-99.99,,2013-02-26 09:02:00,
2013-02-26 03:11:00,15.0,-99.9,29.96,East,96,9.0,-999.0,-999,-99.99,,,-99.99,,2013-02-26 09:11:00,
2013-02-26 03:21:00,14.0,-99.9,29.95,East,95,7.0,-999.0,-999,-99.99,,,-99.99,,2013-02-26 09:21:00,
2013-02-26 03:32:00,14.0,-99.9,29.95,ESE,109,6.0,-999.0,-999,-99.99,,,-99.99,,2013-02-26 09:32:00,
2013-02-26 03:43:00,14.0,-99.9,29.94,ESE,102,8.0,-999.0,-999,-99.99,,,-99.99,,2013-02-26 09:43:00,
2013-02-26 03:52:00,14.0,-99.9,29.94,East,87,6.0,-999.0,-999,-99.99,,,-99.99,,2013-02-26 09:52:00,
2013-02-26 04:01:00,14.0,-99.9,29.94,East,93,5.0,-999.0,-999,-99.99,,,-99.99,,2013-02-26 10:01:00,
2013-02-26 04:11:00,13.0,-99.9,29.94,ESE,103,8.0,-999.0,-999,-99.99,,,-99.99,,2013-02-26 10:11:00,
2013-02-26 04:21:00,13.0,-99.9,29.93,East,99,7.0,-999.0,-999,-99.99,,,-99.99,,2013-02-26 10:21:00,
2013-02-26 04:32:00,13.0,-99.9,29.93,East,101,4.0,-999.0,-999,-99.99,,,-99.99,,2013-02-26 10:32:00,
2013-02-26 04:42:00,13.0,-99.9,29.94,East,98,5.0,-999.0,-999,-99.99,,,-99.99,,2013-02-26 10:42:00,
2013-02-26 04:52:00,12.0,-99.9,29.94,SE,128,6.0,-999.0,-999,-99.99,,,-99.99,,2013-02-26 10:52:00,
2013-02-26 05:01:00,12.0,-99.9,29.94,ESE,111,9.0,-999.0,-999,-99.99,,,-99.99,,2013-02-26 11:01:00,
2013-02-26 05:12:00,12.0,-99.9,29.94,ESE,119,5.0,-999.0,-999,-99.99,,,-99.99,,2013-02-26 11:12:00,
2013-02-26 05:22:00,12.0,-99.9,29.94,ESE,121,2.0,-999.0,-999,-99.99,,,-99.99,,2013-02-26 11:22:00,
2013-02-26 05:32:00,11.0,-99.9,29.94,SSE,163,5.0,-999.0,-999,-99.99,,,-99.99,,2013-02-26 11:32:00,
2013-02-26 05:42:00,11.0,-99.9,29.93,East,99,4.0,-999.0,-999,-99.99,,,-99.99,,2013-02-26 11:42:00,
2013-02-26 05:53:00,11.0,-99.9,29.93,East,89,3.0,-999.0,-999,-99.99,,,-99.99,,2013-02-26 11:53:00,
2013-02-26 06:02:00,12.0,-99.9,29.93,East,93,2.0,-999.0,-999,-99.99,,,-99.99,,2013-02-26 12:02:00,
2013-02-26 06:11:00,12.0,-99.9,29.93,East,82,3.0,-999.0,-999,-99.99,,,-99.99,,2013-02-26 12:11:00,
2013-02-26 06:22:00,11.0,-99.9,29.92,East,85,5.0,-999.0,-999,-99.99,,,-99.99,,2013-02-26 12:22:00,
2013-02-26 06:33:00,12.0,-99.9,29.91,East,84,2.0,-999.0,-999,-99.99,,,-99.99,,2013-02-26 12:33:00,
2013-02-26 06:42:00,11.0,-99.9,29.91,East,99,3.0,-999.0,-999,-99.99,,,-99.99,,2013-02-26 12:42:00,
2013-02-26 06:53:00,11.0,-99.9,29.93,East,90,1.0,-999.0,-999,-99.99,,,-99.99,,2013-02-26 12:53:00,
2013-02-26 07:02:00,11.0,-99.9,29.92,East,79,4.0,-999.0,-999,-99.99,,,-99.99,,2013-02-26 13:02:00,
2013-02-26 07:11:00,11.0,-99.9,29.91,ENE,77,3.0,-999.0,-999,-99.99,,,-99.99,,2013-02-26 13:11:00,
2013-02-26 07:22:00,11.0,-99.9,29.92,ENE,69,3.0,-999.0,-999,-99.99,,,-99.99,,2013-02-26 13:22:00,
2013-02-26 07:32:00,11.0,-99.9,29.91,ENE,72,4.0,-999.0,-999,-99.99,,,-99.99,,2013-02-26 13:32:00,
2013-02-26 07:42:00,11.0,-99.9,29.93,ENE,70,6.0,-999.0,-999,-99.99,,,-99.99,,2013-02-26 13:42:00,
2013-02-26 07:52:00,11.0,-99.9,29.93,ENE,57,7.0,-999.0,-999,-99.99,,,-99.99,,2013-02-26 13:52:00,
2013-02-26 08:02:00,11.0,-99.9,29.93,ENE,63,4.0,-999.0,-999,-99.99,,,-99.99,,2013-02-26 14:02:00,
2013-02-26 08:11:00,11.0,-99.9,29.93,ENE,68,8.0,-999.0,-999,-99.99,,,-99.99,,2013-02-26 14:11:00,
2013-02-26 08:22:00,11.0,-99.9,29.93,East,86,5.0,-999.0,-999,-99.99,,,-99.99,,2013-02-26 14:22:00,
2013-02-26 08:32:00,11.0,-99.9,29.93,ENE,61,6.0,-999.0,-999,-99.99,,,-99.99,,2013-02-26 14:32:00,
2013-02-26 08:42:00,11.0,-99.9,29.93,ENE,67,8.0,-999.0,-999,-99.99,,,-99.99,,2013-02-26 14:42:00,
2013-02-26 08:52:00,11.0,-99.9,29.93,ENE,57,9.0,-999.0,-999,-99.99,,,-99.99,,2013-02-26 14:52:00,
2013-02-26 09:02:00,11.0,-99.9,29.93,ENE,63,9.0,-999.0,-999,-99.99,,,-99.99,,2013-02-26 15:02:00,
2013-02-26 09:12:00,12.0,-99.9,29.91,ENE,62,9.0,-999.0,-999,-99.99,,,-99.99,,2013-02-26 15:12:00,
2013-02-26 09:22:00,11.0,-99.9,29.92,ENE,66,6.0,-999.0,-999,-99.99,,,-99.99,,2013-02-26 15:22:00,
2013-02-26 09:32:00,12.0,-99.9,29.92,ENE,78,6.0,-999.0,-999,-99.99,,,-99.99,,2013-02-26 15:32:00,
2013-02-26 09:42:00,13.0,-99.9,29.93,ENE,63,10.0,-999.0,-999,-99.99,,,-99.99,,2013-02-26 15:42:00,
2013-02-26 09:52:00,13.0,-99.9,29.93,ENE,75,5.0,-999.0,-999,-99.99,,,-99.99,,2013-02-26 15:52:00,
2013-02-26 10:02:00,13.0,-99.9,29.93,ENE,77,6.0,-999.0,-999,-99.99,,,-99.99,,2013-02-26 16:02:00,
2013-02-26 10:11:00,14.0,-99.9,29.94,East,92,6.0,-999.0,-999,-99.99,,,-99.99,,2013-02-26 16:11:00,
2013-02-26 10:22:00,15.0,-99.9,29.95,ESE,104,7.0,-999.0,-999,-99.99,,,-99.99,,2013-02-26 16:22:00,
2013-02-26 10:32:00,15.0,-99.9,29.95,East,96,6.0,-999.0,-999,-99.99,,,-99.99,,2013-02-26 16:32:00,
2013-02-26 10:42:00,16.0,-99.9,29.95,ESE,102,7.0,-999.0,-999,-99.99,,,-99.99,,2013-02-26 16:42:00,
2013-02-26 10:52:00,16.0,-99.9,29.96,ESE,109,6.0,-999.0,-999,-99.99,,,-99.99,,2013-02-26 16:52:00,
2013-02-26 11:01:00,17.0,-99.9,29.95,ESE,106,6.0,-999.0,-999,-99.99,,,-99.99,,2013-02-26 17:01:00,
2013-02-26 11:11:00,17.0,-99.9,29.96,ESE,121,7.0,-999.0,-999,-99.99,,,-99.99,,2013-02-26 17:11:00,
2013-02-26 11:22:00,17.0,-99.9,29.96,ESE,122,6.0,-999.0,-999,-99.99,,,-99.99,,2013-02-26 17:22:00,
2013-02-26 11:32:00,18.0,-99.9,29.95,ESE,102,4.0,-999.0,-999,-99.99,,,-99.99,,2013-02-26 17:32:00,
2013-02-26 11:42:00,19.0,-99.9,29.95,ESE,111,7.0,-999.0,-999,-99.99,,,-99.99,,2013-02-26 17:42:00,
2013-02-26 11:52:00,19.0,-99.9,29.96,ESE,105,4.0,-999.0,-999,-99.99,,,-99.99,,2013-02-26 17:52:00,
2013-02-26 12:02:00,20.0,-99.9,29.95,ENE,71,3.0,-999.0,-999,-99.99,,,-99.99,,2013-02-26 18:02:00,
2013-02-26 12:12:00,20.0,-99.9,29.96,ENE,62,4.0,-999.0,-999,-99.99,,,-99.99,,2013-02-26 18:12:00,
2013-02-26 12:21:00,20.0,-99.9,29.96,ENE,62,4.0,-999.0,-999,-99.99,,,-99.99,,2013-02-26 18:21:00,
2013-02-26 12:32:00,20.0,-99.9,29.96,ESE,105,2.0,-999.0,-999,-99.99,,,-99.99,,2013-02-26 18:32:00,
2013-02-26 12:42:00,20.0,-99.9,29.95,NE,55,5.0,-999.0,-999,-99.99,,,-99.99,,2013-02-26 18:42:00,
2013-02-26 12:53:00,20.0,-99.9,29.95,ENE,73,4.0,-999.0,-999,-99.99,,,-99.99,,2013-02-26 18:53:00,
2013-02-26 13:02:00,20.0,-99.9,29.95,ENE,73,4.0,-999.0,-999,-99.99,,,-99.99,,2013-02-26 19:02:00,
2013-02-26 13:11:00,20.0,-99.9,29.95,NE,50,2.0,-999.0,-999,-99.99,,,-99.99,,2013-02-26 19:11:00,
2013-02-26 13:22:00,19.0,-99.9,29.95,NE,49,5.0,-999.0,-999,-99.99,,,-99.99,,2013-02-26 19:22:00,
2013-02-26 13:32:00,20.0,-99.9,29.94,ENE,60,5.0,-999.0,-999,-99.99,,,-99.99,,2013-02-26 19:32:00,
2013-02-26 13:42:00,21.0,-99.9,29.94,ENE,67,5.0,-999.0,-999,-99.99,,,-99.99,,2013-02-26 19:42:00,
2013-02-26 13:52:00,21.0,-99.9,29.94,NE,56,6.0,-999.0,-999,-99.99,,,-99.99,,2013-02-26 19:52:00,
2013-02-26 14:01:00,21.0,-99.9,29.94,East,81,4.0,-999.0,-999,-99.99,,,-99.99,,2013-02-26 20:01:00,
2013-02-26 14:11:00,21.0,-99.9,29.93,ENE,75,7.0,-999.0,-999,-99.99,,,-99.99,,2013-02-26 20:11:00,
2013-02-26 14:22:00,21.0,-99.9,29.93,East,89,5.0,-999.0,-999,-99.99,,,-99.99,,2013-02-26 20:22:00,
2013-02-26 14:32:00,21.0,-99.9,29.93,East,89,5.0,-999.0,-999,-99.99,,,-99.99,,2013-02-26 20:32:00,
2013-02-26 14:42:00,21.0,-99.9,29.93,East,89,5.0,-999.0,-999,-99.99,,,-99.99,,2013-02-26 20:42:00,
2013-02-26 15:31:00,20.0,-99.9,29.91,ENE,58,15.0,-999.0,-999,-99.99,,,-99.99,,2013-02-26 21:31:00,
2013-02-26 15:41:00,20.0,-99.9,29.91,ENE,58,15.0,-999.0,-999,-99.99,,,-99.99,,2013-02-26 21:41:00,
2013-02-26 15:51:00,20.0,-99.9,29.91,ENE,58,15.0,-999.0,-999,-99.99,,,-99.99,,2013-02-26 21:51:00,
2013-02-26 16:01:00,19.0,-99.9,29.91,NE,56,13.0,-999.0,-999,-99.99,,,-99.99,,2013-02-26 22:01:00,
2013-02-26 16:11:00,19.0,-99.9,29.91,NE,51,14.0,-999.0,-999,-99.99,,,-99.99,,2013-02-26 22:11:00,
2013-02-26 16:21:00,19.0,-99.9,29.91,NE,48,15.0,-999.0,-999,-99.99,,,-99.99,,2013-02-26 22:21:00,
2013-02-26 16:32:00,19.0,-99.9,29.92,NE,34,17.0,-999.0,-999,-99.99,,,-99.99,,2013-02-26 22:32:00,
2013-02-26 16:42:00,19.0,-99.9,29.92,NE,52,14.0,-999.0,-999,-99.99,,,-99.99,,2013-02-26 22:42:00,
2013-02-26 16:52:00,18.0,-99.9,29.92,NNE,33,17.0,-999.0,-999,-99.99,,,-99.99,,2013-02-26 22:52:00,
2013-02-26 17:01:00,19.0,-99.9,29.93,NNE,24,17.0,-999.0,-999,-99.99,,,-99.99,,2013-02-26 23:01:00,
2013-02-26 17:11:00,18.0,-99.9,29.91,NNE,29,19.0,-999.0,-999,-99.99,,,-99.99,,2013-02-26 23:11:00,
2013-02-26 17:21:00,18.0,-99.9,29.92,NNE,17,17.0,-999.0,-999,-99.99,,,-99.99,,2013-02-26 23:21:00,
2013-02-26 17:32:00,18.0,-99.9,29.92,NNE,15,17.0,-999.0,-999,-99.99,,,-99.99,,2013-02-26 23:32:00,
2013-02-26 17:42:00,18.0,-99.9,29.92,North,11,15.0,-999.0,-999,-99.99,,,-99.99,,2013-02-26 23:42:00,
2013-02-26 17:52:00,18.0,-99.9,29.92,NNE,18,12.0,-999.0,-999,-99.99,,,-99.99,,2013-02-26 23:52:00,
2013-02-26 18:02:00,18.0,-99.9,29.92,NNE,18,12.0,-999.0,-999,-99.99,,,-99.99,,2013-02-27 00:02:00,
2013-02-26 18:11:00,18.0,-99.9,29.93,NNE,23,16.0,-999.0,-999,-99.99,,,-99.99,,2013-02-27 00:11:00,
2013-02-26 18:22:00,18.0,-99.9,29.93,NNE,13,17.0,-999.0,-999,-99.99,,,-99.99,,2013-02-27 00:22:00,
2013-02-26 18:32:00,18.0,-99.9,29.93,NNE,21,15.0,-999.0,-999,-99.99,,,-99.99,,2013-02-27 00:32:00,
2013-02-26 18:42:00,18.0,-99.9,29.94,NNE,16,13.0,-999.0,-999,-99.99,,,-99.99,,2013-02-27 00:42:00,
2013-02-26 18:52:00,18.0,-99.9,29.94,North,11,10.0,-999.0,-999,-99.99,,,-99.99,,2013-02-27 00:52:00,
2013-02-26 19:01:00,17.0,-99.9,29.93,NNE,12,13.0,-999.0,-999,-99.99,,,-99.99,,2013-02-27 01:01:00,
2013-02-26 19:11:00,18.0,-99.9,29.94,NNE,22,15.0,-999.0,-999,-99.99,,,-99.99,,2013-02-27 01:11:00,
2013-02-26 19:22:00,17.0,-99.9,29.94,NNE,24,17.0,-999.0,-999,-99.99,,,-99.99,,2013-02-27 01:22:00,
2013-02-26 19:32:00,17.0,-99.9,29.94,NNE,28,16.0,-999.0,-999,-99.99,,,-99.99,,2013-02-27 01:32:00,
2013-02-26 19:42:00,17.0,-99.9,29.94,NNE,22,17.0,-999.0,-999,-99.99,,,-99.99,,2013-02-27 01:42:00,
2013-02-26 19:52:00,17.0,-99.9,29.94,NNE,27,23.0,-999.0,-999,-99.99,,,-99.99,,2013-02-27 01:52:00,
2013-02-26 20:02:00,17.0,-99.9,29.94,NNE,29,18.0,-999.0,-999,-99.99,,,-99.99,,2013-02-27 02:02:00,
2013-02-26 20:16:00,17.0,-99.9,29.95,NNE,29,21.0,-999.0,-999,-99.99,,,-99.99,,2013-02-27 02:16:00,
2013-02-26 20:24:00,17.0,-99.9,29.95,NNE,27,17.0,-999.0,-999,-99.99,,,-99.99,,2013-02-27 02:24:00,
2013-02-26 20:32:00,17.0,-99.9,29.95,NNE,30,15.0,-999.0,-999,-99.99,,,-99.99,,2013-02-27 02:32:00,
2013-02-26 20:42:00,17.0,-99.9,29.95,NE,35,15.0,-999.0,-999,-99.99,,,-99.99,,2013-02-27 02:42:00,
2013-02-26 20:52:00,17.0,-99.9,29.95,NNE,33,12.0,-999.0,-999,-99.99,,,-99.99,,2013-02-27 02:52:00,
2013-02-26 21:02:00,17.0,-99.9,29.95,NNE,30,17.0,-999.0,-999,-99.99,,,-99.99,,2013-02-27 03:02:00,
2013-02-26 21:11:00,17.0,-99.9,29.95,NNE,28,13.0,-999.0,-999,-99.99,,,-99.99,,2013-02-27 03:11:00,
2013-02-26 21:22:00,17.0,-99.9,29.95,NNE,29,15.0,-999.0,-999,-99.99,,,-99.99,,2013-02-27 03:22:00,
2013-02-26 21:32:00,17.0,-99.9,29.95,NE,39,17.0,-999.0,-999,-99.99,,,-99.99,,2013-02-27 03:32:00,
2013-02-26 21:42:00,17.0,-99.9,29.95,NNE,28,12.0,-999.0,-999,-99.99,,,-99.99,,2013-02-27 03:42:00,
2013-02-26 21:52:00,17.0,-99.9,29.96,NE,38,13.0,-999.0,-999,-99.99,,,-99.99,,2013-02-27 03:52:00,
2013-02-26 22:02:00,16.0,-99.9,29.97,NNE,14,10.0,-999.0,-999,-99.99,,,-99.99,,2013-02-27 04:02:00,
2013-02-26 22:12:00,17.0,-99.9,29.97,NNE,23,9.0,-999.0,-999,-99.99,,,-99.99,,2013-02-27 04:12:00,
2013-02-26 22:22:00,16.0,-99.9,29.96,NNE,14,8.0,-999.0,-999,-99.99,,,-99.99,,2013-02-27 04:22:00,
2013-02-26 22:32:00,16.0,-99.9,29.95,NE,38,4.0,-999.0,-999,-99.99,,,-99.99,,2013-02-27 04:32:00,
2013-02-26 22:42:00,16.0,-99.9,29.96,NNE,12,9.0,-999.0,-999,-99.99,,,-99.99,,2013-02-27 04:42:00,
2013-02-26 22:52:00,17.0,-99.9,29.95,North,10,8.0,-999.0,-999,-99.99,,,-99.99,,2013-02-27 04:52:00,
2013-02-26 23:02:00,16.0,-99.9,29.95,NNE,19,7.0,-999.0,-999,-99.99,,,-99.99,,2013-02-27 05:02:00,
2013-02-26 23:12:00,17.0,-99.9,29.95,NNE,25,9.0,-999.0,-999,-99.99,,,-99.99,,2013-02-27 05:12:00,
2013-02-26 23:22:00,17.0,-99.9,29.95,East,91,12.0,-999.0,-999,-99.99,,,-99.99,,2013-02-27 05:22:00,
2013-02-26 23:32:00,17.0,-99.9,29.95,North,-999,15.0,-999.0,-999,-99.99,,,-99.99,,2013-02-27 05:32:00,
2013-02-26 23:42:00,17.0,-99.9,29.95,North,-999,12.0,-999.0,-999,-99.99,,,-99.99,,2013-02-27 05:42:00,
2013-02-26 23:52:00,17.0,-99.9,29.95,East,87,12.0,-999.0,-999,-99.99,,,-99.99,,2013-02-27 05:52:00,